Wind_Speed
42 41 41 40 42 44 46 46 44 41 36 32 30 30 29 28 26 26 26 26 25 23 22 21 19 14 13 12 9 8 7 8 11 13 16 17 20 23 26 30 34 37 42
39 38 40 40 40 37 34 31 29 30 30 27 24 22 19 18 17 16 15 14 12 9 7 4 2 4 5 6 7 7 6 5 5 5 4 5 9 14 20 23 26 28 27
38 39 37 33 30 25 24 24 24 21 20 18 15 13 10 8 5 3 0 3 6 9 12 15 16 19 17 17 17 15 14 12 12 11 7 4 1 4 7 8 7 6 5
37 33 27 23 20 19 16 16 17 17 17 17 17 16 15 14 14 17 19 21 22 23 25 25 28 28 28 29 28 27 26 25 24 22 19 17 14 11 8 8 11 9 7
28 23 20 17 16 16 18 19 19 20 20 20 22 25 27 30 33 33 35 37 38 40 42 43 43 43 42 41 40 38 36 34 33 30 27 25 23 21 15 10 7 6 9
22 22 19 19 23 27 28 30 31 29 29 31 36 40 43 46 48 49 51 53 54 53 52 51 51 50 48 46 44 42 38 36 33 31 28 25 21 20 19 17 15 11 6
23 26 30 32 36 38 39 39 40 42 43 46 49 51 53 55 56 57 57 57 57 56 54 52 50 50 50 51 52 52 50 48 45 43 40 39 37 32 24 17 13 13 13
27 33 35 38 41 41 40 40 43 47 51 53 56 57 58 58 58 58 58 60 61 63 63 62 60 58 57 56 54 52 51 49 47 44 42 40 37 35 32 30 27 20 13
32 35 38 38 39 41 45 48 48 48 48 50 53 55 59 63 65 64 64 63 63 62 62 60 59 58 57 54 53 52 51 50 49 47 44 42 39 36 33 30 27 25 22
34 33 35 36 39 43 43 43 44 47 53 57 60 59 59 60 61 61 61 61 60 60 59 58 57 56 55 54 53 52 52 51 50 48 48 47 45 42 39 33 27 23 21
29 31 37 43 41 41 43 47 50 53 54 55 55 57 59 58 58 58 59 58 58 58 57 56 55 53 51 49 48 48 47 48 48 48 48 47 46 45 42 39 36 33 27
36 40 38 39 40 45 46 47 50 50 51 53 54 55 56 56 55 54 55 55 55 53 52 51 49 48 47 47 46 46 46 47 47 47 47 47 46 43 41 38 34 30 27
38 36 37 40 44 46 45 46 46 49 50 51 52 53 52 51 50 49 49 48 47 46 45 46 46 46 44 44 43 44 45 46 48 49 49 48 47 44 40 37 32 28 27
36 34 38 42 42 42 43 44 46 47 47 48 47 47 47 45 44 44 42 42 42 42 42 42 41 41 41 42 43 45 46 48 50 51 52 50 45 43 41 38 34 31 30
34 38 40 38 39 40 41 43 43 44 43 43 43 41 39 39 41 41 40 38 36 36 36 37 38 38 39 40 41 42 44 46 48 52 54 49 44 43 41 42 41 39 37
37 38 36 37 37 38 39 39 40 40 39 37 36 35 36 36 35 35 34 34 34 35 35 35 36 36 36 37 38 40 41 42 48 53 52 44 41 40 39 38 38 38 39
36 34 34 35 36 35 35 36 35 35 34 32 32 32 33 33 34 33 32 34 35 34 33 34 36 36 37 38 38 36 38 45 51 55 55 48 41 41 42 41 39 40 44
32 33 33 33 32 32 32 32 33 32 31 29 28 27 28 29 29 30 31 31 30 30 32 34 35 34 34 35 38 39 39 43 49 53 58 52 46 44 43 43 43 46 48
31 30 31 30 27 28 28 29 28 26 25 23 23 23 25 25 27 27 28 29 29 30 32 34 34 35 37 39 40 41 43 43 47 50 55 58 50 46 45 45 46 49 52
28 29 27 26 24 24 26 26 24 23 21 19 21 22 22 22 24 24 24 25 26 28 29 32 35 37 39 41 42 43 44 46 45 48 52 56 60 54 47 48 50 52 54
27 26 25 22 22 22 24 24 22 20 17 17 17 17 17 18 18 18 18 20 22 24 27 30 33 36 39 41 42 46 48 48 50 49 50 55 58 62 58 50 51 53 55
26 25 22 21 22 22 23 24 21 17 15 13 13 12 12 12 11 12 12 14 17 20 24 28 32 35 39 41 43 46 49 52 52 53 53 54 58 62 66 60 52 54 57
26 24 22 20 22 23 24 24 21 17 14 11 9 8 7 4 4 5 7 10 14 19 23 27 32 36 39 42 44 47 51 55 57 57 56 58 57 63 66 70 57 55 59
28 27 23 21 22 25 25 25 22 19 16 13 10 7 6 3 4 7 10 12 16 21 26 29 34 38 41 44 47 50 54 58 59 59 58 61 60 63 66 73 60 58 61
33 30 28 24 23 25 27 27 25 22 18 15 15 12 11 10 11 13 15 18 22 26 29 33 37 41 44 47 51 54 58 61 62 60 60 61 63 63 67 72 64 61 64
39 34 31 29 26 26 28 30 28 26 22 19 17 18 17 17 18 19 22 24 27 31 34 37 41 44 47 50 54 57 60 63 64 60 60 62 65 65 69 72 65 62 66
Wind_Direction
308 307 306 305 305 303 302 300 300 302 301 301 301 298 295 290 285 281 277 276 276 275 273 272 273 277 277 270 265 255 242 234 227 226 232 235 241 246 251 254 258 261 265
314 314 314 312 310 311 312 313 314 318 318 313 309 305 302 298 290 284 279 276 271 263 247 233 215 186 158 132 121 113 120 131 152 185 193 234 251 256 261 265 268 270 271
323 323 324 325 325 328 329 325 323 331 338 339 338 337 339 332 311 292 250 93 89 105 113 117 125 111 109 107 101 97 97 93 88 83 77 71 43 271 267 263 259 243 237
332 334 336 339 340 338 340 354 6 9 15 22 32 44 57 71 83 86 89 98 103 104 104 105 101 101 97 95 91 88 85 83 82 81 77 71 64 63 76 92 104 113 126
342 352 356 357 6 19 32 38 44 47 42 47 57 66 74 82 86 91 96 99 101 100 97 94 92 89 87 85 84 82 81 79 75 72 70 68 64 65 78 88 93 117 110
8 18 32 47 56 59 62 65 69 75 76 77 81 84 87 91 94 96 96 96 93 91 91 91 89 87 86 85 84 83 80 76 73 69 66 62 59 59 59 59 57 55 37
46 61 69 70 75 78 81 84 86 87 88 88 89 90 91 92 93 93 93 93 91 90 89 88 88 87 86 85 83 80 77 73 71 69 67 66 63 60 56 49 41 36 34
78 82 84 89 91 92 91 89 89 90 92 92 92 93 93 93 92 92 92 92 91 90 88 87 86 84 82 81 78 77 74 72 69 67 64 62 60 58 57 55 54 48 33
94 98 98 96 95 92 93 93 93 93 93 94 93 93 94 94 92 92 91 91 89 88 87 86 85 83 81 80 77 73 70 66 62 58 55 51 48 45 42 41 41 41 38
103 104 103 101 102 99 97 97 97 96 96 95 93 92 91 91 90 90 90 88 88 87 86 85 83 81 79 76 72 69 66 62 58 55 53 50 46 43 40 35 30 28 24
107 102 105 106 102 101 100 101 99 97 96 94 93 93 91 90 89 89 89 87 86 85 84 83 80 77 74 71 68 65 61 58 55 49 45 41 38 35 34 34 34 35 32
113 113 108 107 105 105 103 102 100 97 96 95 93 92 91 90 89 87 87 86 84 82 81 79 77 75 71 68 65 61 56 51 46 42 36 31 27 24 23 22 22 23 22
116 113 109 110 111 109 105 102 99 97 96 95 94 93 91 89 86 85 85 83 82 81 78 75 72 69 67 64 60 56 51 46 41 35 30 24 20 19 17 15 13 12 12
118 115 116 118 112 109 106 103 101 99 98 97 95 92 90 88 87 85 81 79 78 77 75 72 69 67 63 59 54 49 44 39 34 28 24 21 20 19 19 19 19 17 16
119 121 122 119 115 111 107 106 104 103 101 97 94 93 90 87 85 83 81 79 76 74 71 67 63 59 55 52 47 44 39 33 29 25 21 21 23 28 34 36 36 34 31
127 126 123 120 117 114 110 109 108 107 102 99 97 92 89 87 84 82 78 76 74 70 67 61 57 53 49 45 41 38 32 28 25 24 22 23 23 27 24 23 23 22 17
131 127 126 123 119 117 115 114 113 109 106 101 97 94 89 87 85 83 79 74 70 66 62 57 52 47 43 40 37 32 29 25 23 20 19 20 19 17 17 16 13 11 9
136 132 130 127 124 120 120 121 119 113 107 103 98 95 92 89 86 81 76 72 69 66 60 53 47 43 40 36 32 28 25 22 21 19 18 18 17 16 16 16 15 9 5
143 139 135 133 130 128 132 129 127 120 111 106 104 101 96 90 84 81 78 71 64 58 52 47 42 39 34 29 26 23 21 18 17 15 15 16 14 12 14 11 7 7 5
150 146 143 144 142 139 141 140 133 127 123 118 112 107 99 94 88 79 70 61 55 50 46 42 38 34 31 25 23 19 16 14 11 9 9 11 11 9 5 5 5 2 2
162 157 152 154 155 153 151 151 146 141 136 127 121 114 106 94 84 75 65 55 47 40 35 31 28 24 22 21 17 15 12 9 8 6 2 4 6 7 6 0 360 1 0
175 170 166 165 168 170 165 164 162 159 153 141 137 128 109 99 92 73 55 43 34 28 22 18 17 15 12 10 10 9 6 7 3 1 1 358 360 1 1 360 355 356 356
187 184 184 178 178 180 179 175 175 176 172 170 167 152 137 117 73 45 21 16 11 7 6 5 4 2 1 0 360 1 360 360 360 357 356 357 355 356 357 358 354 354 354
196 196 197 192 189 188 192 190 190 193 195 199 203 203 209 254 298 316 326 333 335 339 343 348 352 352 352 351 353 354 354 353 355 355 353 353 353 353 354 355 354 353 353
204 203 205 204 202 198 198 202 202 207 211 219 225 231 244 260 280 291 301 309 315 320 327 333 338 341 343 344 346 348 349 348 351 350 350 349 350 351 351 353 351 351 352
206 209 210 213 212 211 206 206 213 219 225 232 238 243 253 265 276 285 293 301 307 313 319 322 327 331 334 337 340 343 344 344 346 345 346 347 347 349 349 350 348 349 351
Height
10508 10499 10491 10484 10477 10470 10462 10454 10447 10440 10434 10429 10424 10418 10414 10410 10408 10407 10407 10407 10407 10406 10406 10405 10404 10404 10402 10402 10401 10402 10403 10405 10408 10412 10416 10420 10424 10427 10430 10432 10435 10437 10438
10496 10489 10482 10473 10466 10458 10451 10444 10437 10430 10425 10420 10416 10412 10409 10406 10403 10401 10400 10399 10399 10399 10399 10400 10401 10402 10403 10402 10402 10403 10405 10407 10410 10413 10416 10419 10422 10424 10425 10427 10428 10429 10430
10488 10480 10471 10463 10457 10450 10444 10439 10433 10427 10421 10416 10412 10408 10404 10401 10399 10398 10397 10397 10397 10398 10399 10402 10404 10404 10407 10407 10407 10408 10410 10412 10414 10416 10419 10421 10423 10424 10424 10425 10425 10426 10426
10480 10472 10465 10459 10454 10448 10443 10438 10432 10426 10421 10415 10411 10407 10404 10402 10400 10398 10399 10401 10402 10404 10406 10408 10408 10411 10412 10412 10414 10416 10418 10420 10422 10425 10426 10427 10427 10426 10426 10426 10426 10427 10426
10477 10470 10464 10459 10454 10448 10443 10438 10434 10429 10425 10420 10416 10412 10409 10406 10406 10406 10408 10410 10412 10413 10414 10415 10417 10419 10420 10422 10425 10426 10429 10430 10431 10432 10433 10432 10432 10430 10429 10429 10428 10427 10426
10477 10471 10465 10460 10456 10451 10447 10443 10439 10437 10433 10428 10424 10421 10419 10418 10419 10421 10422 10423 10423 10423 10425 10427 10428 10430 10432 10434 10436 10438 10439 10439 10439 10439 10438 10437 10436 10435 10433 10432 10430 10429 10427
10481 10476 10472 10467 10464 10461 10458 10455 10452 10449 10446 10442 10439 10437 10435 10435 10435 10434 10435 10436 10436 10437 10438 10439 10440 10442 10444 10446 10447 10448 10448 10447 10447 10446 10445 10443 10441 10438 10435 10433 10432 10430 10427
10488 10484 10482 10478 10475 10474 10472 10469 10466 10463 10461 10458 10455 10453 10451 10450 10449 10448 10449 10449 10450 10450 10451 10452 10453 10455 10456 10456 10458 10458 10458 10457 10456 10454 10452 10450 10448 10444 10441 10437 10434 10430 10427
10495 10493 10491 10489 10487 10486 10485 10482 10479 10477 10475 10473 10471 10469 10467 10466 10465 10464 10464 10464 10464 10464 10464 10465 10466 10467 10468 10469 10469 10468 10467 10466 10464 10462 10460 10457 10453 10449 10445 10441 10437 10433 10430
10503 10502 10500 10499 10497 10497 10495 10494 10491 10490 10488 10487 10486 10484 10483 10481 10480 10480 10478 10478 10477 10477 10477 10478 10479 10479 10480 10479 10479 10478 10477 10476 10473 10471 10468 10464 10460 10455 10450 10445 10441 10436 10432
10512 10511 10510 10510 10508 10507 10506 10506 10505 10504 10502 10501 10500 10498 10496 10495 10494 10493 10492 10492 10491 10491 10491 10490 10491 10491 10491 10490 10490 10488 10487 10484 10481 10478 10473 10469 10464 10459 10454 10449 10444 10439 10434
10518 10519 10519 10520 10518 10518 10518 10518 10517 10516 10514 10513 10512 10510 10510 10508 10508 10508 10506 10505 10504 10504 10504 10503 10503 10503 10501 10500 10498 10496 10494 10490 10486 10482 10477 10472 10467 10461 10455 10450 10444 10439 10435
10527 10528 10528 10528 10528 10527 10528 10529 10529 10527 10527 10526 10524 10523 10522 10521 10522 10521 10520 10519 10518 10517 10515 10514 10512 10511 10510 10508 10507 10505 10501 10496 10492 10487 10482 10476 10469 10462 10456 10450 10445 10440 10435
10535 10535 10536 10537 10537 10537 10537 10538 10538 10539 10538 10537 10537 10535 10534 10533 10532 10532 10532 10530 10528 10527 10525 10524 10522 10520 10519 10516 10513 10509 10505 10501 10496 10492 10486 10479 10471 10464 10458 10451 10445 10440 10435
10542 10543 10545 10546 10546 10547 10547 10547 10548 10548 10548 10548 10546 10545 10545 10544 10543 10542 10541 10540 10539 10536 10534 10533 10531 10528 10525 10523 10519 10516 10511 10507 10503 10497 10489 10481 10474 10468 10462 10456 10450 10445 10440
10549 10551 10553 10554 10554 10555 10555 10556 10557 10558 10557 10557 10556 10554 10554 10553 10552 10551 10550 10548 10546 10544 10543 10541 10538 10535 10532 10528 10525 10521 10518 10513 10507 10500 10493 10485 10479 10472 10466 10460 10453 10447 10440
10558 10558 10561 10561 10562 10563 10564 10564 10565 10565 10565 10565 10564 10563 10561 10560 10560 10560 10558 10556 10553 10552 10550 10547 10544 10540 10537 10534 10531 10527 10521 10515 10509 10502 10495 10487 10480 10473 10467 10460 10453 10447 10440
10564 10565 10567 10568 10569 10570 10571 10572 10572 10572 10572 10571 10571 10570 10570 10568 10567 10565 10564 10562 10561 10559 10556 10552 10549 10546 10543 10539 10534 10529 10524 10518 10512 10505 10497 10490 10482 10475 10468 10461 10454 10446 10437
10571 10572 10573 10574 10575 10576 10577 10578 10578 10578 10577 10577 10577 10576 10576 10574 10572 10571 10570 10568 10566 10563 10560 10557 10554 10550 10546 10541 10536 10531 10525 10519 10513 10507 10500 10492 10484 10476 10469 10461 10453 10444 10435
10575 10577 10578 10579 10580 10581 10582 10583 10583 10583 10583 10582 10582 10581 10580 10578 10576 10575 10574 10572 10570 10567 10564 10561 10557 10553 10548 10544 10539 10533 10528 10521 10515 10508 10501 10493 10485 10476 10467 10459 10450 10441 10432
10578 10579 10581 10583 10584 10585 10585 10586 10587 10587 10587 10586 10585 10584 10583 10581 10580 10579 10577 10575 10572 10569 10566 10563 10559 10555 10550 10545 10540 10535 10529 10522 10515 10508 10500 10492 10484 10475 10466 10456 10447 10438 10429
10580 10581 10583 10585 10586 10587 10588 10589 10589 10590 10589 10589 10588 10587 10585 10584 10583 10581 10579 10577 10574 10571 10568 10564 10560 10555 10550 10545 10541 10535 10529 10522 10515 10507 10499 10490 10481 10472 10463 10453 10443 10434 10424
10580 10582 10583 10585 10587 10589 10590 10590 10590 10590 10590 10590 10589 10588 10587 10586 10584 10582 10580 10577 10574 10571 10568 10564 10560 10555 10550 10545 10539 10533 10527 10520 10512 10504 10495 10487 10477 10469 10459 10449 10438 10429 10419
10578 10581 10583 10584 10586 10587 10589 10590 10590 10590 10590 10590 10589 10588 10587 10586 10584 10582 10580 10577 10574 10571 10567 10563 10558 10554 10549 10543 10537 10531 10523 10516 10509 10500 10491 10483 10474 10466 10455 10445 10434 10425 10415
10575 10577 10580 10582 10584 10585 10587 10588 10589 10589 10589 10589 10588 10587 10586 10584 10582 10580 10578 10576 10572 10569 10565 10560 10556 10551 10546 10540 10533 10527 10520 10512 10504 10496 10488 10479 10471 10462 10451 10441 10429 10419 10409
10570 10574 10576 10578 10580 10582 10583 10585 10586 10587 10587 10586 10585 10584 10583 10582 10580 10578 10575 10573 10569 10566 10562 10557 10552 10547 10541 10535 10529 10523 10516 10508 10500 10492 10483 10475 10465 10456 10446 10436 10424 10414 10404